Salem, OR

10:08 PM PST on February 25, 2017 (GMT -0800)
McNary

Weather History for KSLE - November, 2011

Change the Weather History Date:

Wednesday, November 23, 2011

  Actual Average Record
Temperature  
Mean Temperature 50 °F 44 °F  
Max Temperature 57 °F 50 °F 66 °F (1959)
Min Temperature 43 °F 37 °F 16 °F (1985)
Degree Days  
Heating Degree Days 15 21  
Month to date heating degree days 457 429  
Since 1 July heating degree days 853 961  
Cooling Degree Days 0 0  
Month to date cooling degree days 0 0  
Year to date cooling degree days 316 290  
Moisture  
Dew Point 45 °F    
Average Humidity 78    
Maximum Humidity 93    
Minimum Humidity 62    
Precipitation  
Precipitation 0.69 in 0.24 in 1.96 in (1942)
Month to date precipitation 4.94 4.79  
Year to date precipitation 31.54 31.10  
Snow  
Snow 0.00 in - - ()
Month to date snowfall 0.0  
Snow Depth 0.00 in    
Sea Level Pressure  
Sea Level Pressure 29.68 in    
Wind  
Wind Speed 8 mph (SSW)    
Max Wind Speed 21 mph    
Max Gust Speed 31 mph    
Visibility 8 miles    
Events Rain    
T = Trace of Precipitation, MM = Missing Value Source: NWS Daily Summary

Daily Weather History Graph

Daily Weather History Graph

Search for Another Location

Airport or City:

Trip Planner

Search our weather history database for the weather conditions in past years. The results will help you decide how hot, cold, wet, or windy it might be!

Date:

Astronomy

Nov. 23, 2011 Rise Set
Actual Time 7:19 AM PST 4:36 PM PST
Civil Twilight 6:47 AM PST 5:09 PM PST
Nautical Twilight 6:11 AM PST 5:45 PM PST
Astronomical Twilight 5:36 AM PST 6:20 PM PST
Moon 5:29 AM PST (11/23) 3:23 PM PST (11/23)
Length of Visible Light 10h 21m
Length of Day
9h 16m
Waning Crescent, 3% of the Moon is Illuminated
Nov 23
Waning Crescent
Nov 24
New
Dec 2
First Quarter
Dec 10
Full
Dec 17
Last Quarter

Hourly Weather History & Observations

Time (PST) Temp. Windchill Dew Point Humidity Pressure Visibility Wind Dir Wind Speed Gust Speed Precip Events Conditions
12:56 AM 57.0 °F - 48.0 °F 72% 29.52 in 10.0 mi South 12.7 mph - 0.00 in Rain Light Rain
1:56 AM 55.0 °F - 46.9 °F 74% 29.50 in 10.0 mi South 15.0 mph - 0.01 in Rain Light Rain
2:56 AM 57.0 °F - 46.0 °F 67% 29.51 in 10.0 mi South 15.0 mph - 0.00 in Rain Light Rain
3:56 AM 57.0 °F - 45.0 °F 64% 29.49 in 10.0 mi South 15.0 mph - 0.00 in Rain Light Rain
4:56 AM 55.0 °F - 45.0 °F 69% 29.50 in 10.0 mi South 12.7 mph - 0.01 in Rain Light Rain
5:56 AM 54.0 °F - 46.0 °F 75% 29.52 in 10.0 mi South 18.4 mph 27.6 mph 0.04 in Rain Light Rain
6:12 AM 53.6 °F - 48.2 °F 82% 29.55 in 4.0 mi WSW 11.5 mph 23.0 mph 0.05 in Rain Heavy Rain
6:56 AM 53.1 °F - 48.0 °F 83% 29.58 in 6.0 mi SSW 9.2 mph - 0.18 in Rain Light Rain
7:56 AM 50.0 °F - 46.9 °F 89% 29.61 in 5.0 mi SW 8.1 mph - 0.03 in Rain Light Rain
8:56 AM 50.0 °F - 46.0 °F 86% 29.64 in 6.0 mi South 8.1 mph - 0.02 in Rain Light Rain
9:56 AM 50.0 °F - 46.9 °F 89% 29.65 in 5.0 mi Calm Calm - 0.06 in Rain Rain
10:38 AM 50.0 °F - 46.4 °F 87% 29.67 in 5.0 mi WSW 3.5 mph - 0.03 in Rain Light Rain
10:56 AM 50.0 °F - 46.0 °F 86% 29.68 in 5.0 mi NW 8.1 mph - 0.04 in Rain Rain
11:56 AM 46.9 °F - 44.1 °F 90% 29.69 in 7.0 mi WNW 5.8 mph - 0.10 in Rain Rain
12:56 PM 46.9 °F - 43.0 °F 86% 29.71 in 8.0 mi WSW 4.6 mph - 0.06 in Rain Light Rain
1:56 PM 46.9 °F - 43.0 °F 86% 29.72 in 10.0 mi Calm Calm - 0.03 in Rain Light Rain
2:56 PM 46.9 °F - 44.1 °F 90% 29.74 in 10.0 mi Calm Calm - 0.03 in Rain Light Rain
5:56 PM 46.0 °F - 43.0 °F 89% 29.82 in 10.0 mi Calm Calm - 0.00 in   Overcast
6:56 PM 45.0 °F 43.5 °F 42.1 °F 90% 29.84 in 10.0 mi South 3.5 mph - N/A   Scattered Clouds
7:56 PM 45.0 °F 40.6 °F 42.1 °F 90% 29.86 in 10.0 mi South 8.1 mph - N/A   Mostly Cloudy
8:56 PM 45.0 °F 41.8 °F 42.1 °F 90% 29.88 in 10.0 mi South 5.8 mph - N/A   Overcast
9:56 PM 44.1 °F 39.5 °F 41.0 °F 89% 29.88 in 10.0 mi SSE 8.1 mph - N/A   Overcast
10:56 PM 43.0 °F 40.3 °F 39.9 °F 89% 29.89 in 10.0 mi SSE 4.6 mph - N/A   Mostly Cloudy
11:17 PM 44.6 °F 40.7 °F 41.0 °F 87% 29.88 in 10.0 mi South 6.9 mph - N/A   Overcast